カタログに戻る

STARLINK-36570

運用中通信VLEO
NORAD 67640·PAYLOAD·🇺🇸 United States

打ち上げ Jan 30, 2026 から Cape Canaveral Space Force Station

Loading…

次のパス (今後24時間)

TLE

最新Source: CelesTrak SupGP

元期: Sep 14, 2026, 22:53 UTC

1 67640C 26020Z   26257.95395833 -.00038070  00000+0 -13789-2 0  2576
2 67640  43.0019 150.7083 0001335 268.8492  14.2992 15.27598097    18

AllMySatでSTARLINK-36570をリアルタイム追跡

Download on the App Store